Date String (YYYY-MM-DD hh:mm:ss) UTC,Instrument flags,absolute air pressure of the measurement (hPa),sample flow rate (lpm),inlet stack bypass flow (lpm),air temperature of the measurement (°C),ambient temperature measured by the external sensor (°C),aerosol sample conditioner tube jacket temperature (°C),OPC LED temperature (°C),internal box temperature (°C),relative humidity of the measurement (%),span deviation,mass concentration of particles derived from Lorenz-Mie calculation of OPC scattering (μg/m³),mass concentration of particles derived from Lorenz-Mie calculation of OPC scattering (μg/m³),mass concentration of particles derived from Lorenz-Mie calculation of OPC scattering (μg/m³)
DateTimeUTC,F1_M11,P_M11,Q1_M11,Q2_M11,T1_M11,T2_M11,T3_M11,T4_M11,T5_M11,U1_M11,ZSPAN_M11,X0_M11,X2_M11,X1_M11
2023-11-01 00:00:00,SystemResetWarning,0834.7,5.00,000.00,026.3,025.2,000.0,034.5,027.6,10.5,0002.7,0013.21,0008.56,0008.08
2023-11-01 00:01:00,SystemResetWarning,0834.7,4.99,000.00,026.2,025.2,000.0,034.5,027.6,10.5,0003.2,0013.42,0008.62,0008.14
2023-11-01 00:02:00,SystemResetWarning,0834.7,5.01,000.00,026.3,025.2,000.0,034.5,027.6,10.4,0003.0,0014.42,0008.67,0008.18
2023-11-01 00:03:00,SystemResetWarning,0834.8,5.01,000.00,026.2,025.2,000.0,034.5,027.6,10.5,0002.7,0014.67,0008.72,0008.20
2023-11-01 00:04:00,SystemResetWarning,0834.7,4.99,000.00,026.2,025.2,000.0,034.5,027.6,10.7,0003.3,0014.65,0008.78,0008.24
2023-11-01 00:05:00,SystemResetWarning,0834.7,5.00,000.00,026.2,025.1,000.0,034.5,027.6,11.1,0003.2,0014.24,0008.81,0008.25
2023-11-01 00:06:00,SystemResetWarning,0834.7,5.01,000.00,026.2,025.1,000.0,034.5,027.6,11.1,0002.6,0013.81,0008.85,0008.29
2023-11-01 00:07:00,SystemResetWarning,0834.8,5.00,000.00,026.2,025.1,000.0,034.5,027.6,11.1,0003.7,0013.73,0008.88,0008.32
2023-11-01 00:08:00,SystemResetWarning,0834.8,4.99,000.00,026.2,025.1,000.0,034.5,027.6,11.0,0005.9,0013.73,0008.88,0008.33
2023-11-01 00:09:00,SystemResetWarning,0834.8,5.00,000.00,026.2,025.0,000.0,034.5,027.5,11.0,0006.5,0013.70,0008.86,0008.34
2023-11-01 00:10:00,SystemResetWarning,0834.7,5.01,000.00,026.2,025.0,000.0,034.5,027.6,10.9,0006.3,0013.99,0008.86,0008.35
2023-11-01 00:11:00,SystemResetWarning,0834.7,5.01,000.00,026.2,025.0,000.0,034.5,027.6,10.8,0006.0,0013.73,0008.85,0008.36
2023-11-01 00:12:00,SystemResetWarning,0834.7,4.98,000.00,026.2,025.0,000.0,034.5,027.5,10.8,0006.4,0013.60,0008.86,0008.38
2023-11-01 00:13:00,SystemResetWarning,0834.7,5.01,000.00,026.2,025.0,000.0,034.5,027.5,11.0,0007.4,0012.67,0008.89,0008.39
2023-11-01 00:14:00,SystemResetWarning,0834.7,5.02,000.00,026.2,025.0,000.0,034.5,027.5,11.1,0007.0,0012.45,0008.88,0008.39
2023-11-01 00:15:00,SystemResetWarning,0834.7,4.98,000.00,026.2,025.0,000.0,034.5,027.5,10.8,0006.5,0012.47,0008.88,0008.40
2023-11-01 00:16:00,SystemResetWarning,0834.7,4.99,000.00,026.1,025.0,000.0,034.5,027.5,10.7,0006.0,0012.49,0008.89,0008.40
2023-11-01 00:17:00,SystemResetWarning,0834.7,5.00,000.00,026.1,025.0,000.0,034.5,027.5,10.7,0006.1,0012.45,0008.87,0008.38
2023-11-01 00:18:00,SystemResetWarning,0834.8,5.01,000.00,026.1,025.0,000.0,034.5,027.5,10.8,0005.9,0012.44,0008.85,0008.37
2023-11-01 00:19:00,SystemResetWarning,0834.7,5.00,000.00,026.1,025.0,000.0,034.5,027.5,11.0,0005.6,0012.44,0008.86,0008.37
2023-11-01 00:20:00,SystemResetWarning,0834.8,5.00,000.00,026.1,025.0,000.0,034.5,027.5,11.5,0005.5,0012.39,0008.85,0008.38
2023-11-01 00:21:00,SystemResetWarning,0834.9,5.00,000.00,026.1,025.0,000.0,034.5,027.5,11.7,0005.9,0012.06,0008.87,0008.39
2023-11-01 00:22:00,SystemResetWarning,0834.8,5.00,000.00,026.1,025.0,000.0,034.5,027.4,11.1,0006.5,0011.70,0008.86,0008.40
2023-11-01 00:23:00,SystemResetWarning,0834.8,5.00,000.00,026.1,025.0,000.0,034.5,027.5,11.1,0006.4,0012.22,0008.86,0008.41
2023-11-01 00:24:00,SystemResetWarning,0834.8,5.00,000.00,026.1,025.0,000.0,034.5,027.4,11.6,0005.9,0012.83,0008.84,0008.41
2023-11-01 00:25:00,SystemResetWarning,0835.0,4.99,000.00,026.1,025.0,000.0,034.5,027.4,11.4,0005.5,0013.02,0008.82,0008.39
2023-11-01 00:26:00,SystemResetWarning,0834.7,5.01,000.00,026.1,024.9,000.0,034.5,027.5,11.2,0005.5,0012.97,0008.81,0008.39
2023-11-01 00:27:00,SystemResetWarning,0834.9,5.01,000.00,026.1,024.9,000.0,034.5,027.4,10.9,0005.8,0012.93,0008.80,0008.39
2023-11-01 00:28:00,SystemResetWarning,0834.8,5.00,000.00,026.1,024.9,000.0,034.5,027.4,10.6,0005.6,0013.70,0008.81,0008.38
2023-11-01 00:29:00,SystemResetWarning,0834.8,5.01,000.00,026.1,024.9,000.0,034.5,027.4,10.4,0005.7,0013.80,0008.82,0008.39
2023-11-01 00:30:00,SystemResetWarning,0835.0,4.99,000.00,026.1,024.9,000.0,034.5,027.4,10.5,0005.9,0013.86,0008.81,0008.38
2023-11-01 00:31:00,SystemResetWarning,0835.1,5.00,000.00,026.1,024.9,000.0,034.5,027.4,11.0,0006.1,0014.25,0008.80,0008.38
2023-11-01 00:32:00,SystemResetWarning,0835.3,5.00,000.00,026.1,024.8,000.0,034.5,027.4,10.8,0005.9,0014.33,0008.81,0008.38
2023-11-01 00:33:00,SystemResetWarning,0835.4,4.99,000.00,026.0,024.8,000.0,034.4,027.4,11.0,0005.8,0014.38,0008.80,0008.39
2023-11-01 00:34:00,SystemResetWarning,0835.4,4.98,000.00,026.0,024.8,000.0,034.4,027.4,11.0,0005.4,0015.22,0008.79,0008.38
2023-11-01 00:35:00,SystemResetWarning,0835.4,5.00,000.00,026.0,024.7,000.0,034.4,027.4,10.9,0005.0,0015.00,0008.79,0008.37
2023-11-01 00:36:00,SystemResetWarning,0835.4,5.01,000.00,026.0,024.7,000.0,034.4,027.4,10.9,0005.3,0014.42,0008.75,0008.34
2023-11-01 00:37:00,SystemResetWarning,0835.2,5.00,000.00,026.0,024.7,000.0,034.4,027.4,10.9,0005.1,0014.35,0008.67,0008.27
2023-11-01 00:38:00,SystemResetWarning,0835.4,4.99,000.00,026.0,024.7,000.0,034.4,027.3,11.5,0004.9,0014.32,0008.60,0008.20
2023-11-01 00:39:00,SystemResetWarning,0835.3,5.00,000.00,026.0,024.7,000.0,034.4,027.3,11.0,0004.7,0014.15,0008.54,0008.12
2023-11-01 00:40:00,SystemResetWarning,0835.4,5.00,000.00,026.0,024.7,000.0,034.4,027.3,10.7,0004.3,0013.94,0008.42,0008.02
2023-11-01 00:41:00,SystemResetWarning,0835.3,5.00,000.00,026.0,024.6,000.0,034.4,027.3,11.3,0003.8,0014.41,0008.35,0007.92
2023-11-01 00:42:00,SystemResetWarning,0834.8,5.00,000.00,026.0,024.6,000.0,034.4,027.3,11.0,0003.5,0014.12,0008.27,0007.81
2023-11-01 00:43:00,SystemResetWarning,0835.0,5.00,000.00,025.9,024.6,000.0,034.4,027.2,10.8,0003.0,0014.58,0008.18,0007.69
2023-11-01 00:44:00,SystemResetWarning,0835.0,5.00,000.00,025.9,024.6,000.0,034.4,027.2,10.8,0002.5,0015.48,0008.06,0007.56
2023-11-01 00:45:00,SystemResetWarning,0835.0,5.01,000.00,025.9,024.6,000.0,034.4,027.2,11.1,0001.7,0015.09,0007.99,0007.45
2023-11-01 00:46:00,SystemResetWarning,0835.0,5.00,000.00,025.9,024.6,000.0,034.3,027.2,10.9,0002.3,0014.02,0007.89,0007.34
2023-11-01 00:47:00,SystemResetWarning,0835.0,4.99,000.00,025.9,024.5,000.0,034.3,027.2,10.7,0001.8,0014.25,0007.82,0007.25
2023-11-01 00:48:00,SystemResetWarning,0835.0,5.01,000.00,025.9,024.5,000.0,034.3,027.2,10.7,0000.7,0014.33,0007.80,0007.21
2023-11-01 00:49:00,SystemResetWarning,0835.0,5.01,000.00,025.9,024.5,000.0,034.3,027.2,10.7,-000.3,0014.42,0007.76,0007.17
2023-11-01 00:50:00,SystemResetWarning,0835.0,5.01,000.00,025.9,024.5,000.0,034.3,027.2,10.7,0000.4,0014.26,0007.70,0007.15
2023-11-01 00:51:00,SystemResetWarning,0835.0,4.99,000.00,025.8,024.5,000.0,034.3,027.2,10.8,0001.4,0014.54,0007.69,0007.14
2023-11-01 00:52:00,SystemResetWarning,0835.0,4.99,000.00,025.8,024.5,000.0,034.3,027.2,11.2,0002.5,0013.95,0007.67,0007.14
2023-11-01 00:53:00,SystemResetWarning,0835.0,5.01,000.00,025.8,024.4,000.0,034.3,027.2,11.3,0004.2,0013.79,0007.65,0007.15
2023-11-01 00:54:00,SystemResetWarning,0835.0,5.01,000.00,025.8,024.4,000.0,034.3,027.1,11.3,0004.2,0013.22,0007.66,0007.16
2023-11-01 00:55:00,SystemResetWarning,0835.0,4.98,000.00,025.8,024.4,000.0,034.2,027.1,11.3,0004.1,0012.95,0007.65,0007.16
2023-11-01 00:56:00,SystemResetWarning,0835.0,4.99,000.00,025.8,024.4,000.0,034.2,027.1,11.2,0003.3,0013.08,0007.57,0007.13
2023-11-01 00:57:00,SystemResetWarning,0835.0,5.02,000.00,025.8,024.4,000.0,034.2,027.1,10.9,0002.1,0013.14,0007.51,0007.08
2023-11-01 00:58:00,SystemResetWarning,0835.0,5.00,000.00,025.8,024.5,000.0,034.2,027.1,10.9,0002.3,0012.91,0007.46,0007.05
2023-11-01 00:59:00,SystemResetWarning,0835.0,4.99,000.00,025.8,024.5,000.0,034.2,027.1,10.9,0002.7,0012.86,0007.47,0007.03
